Regional Weather Roundup
Issued by NWS State College, PA

Home | Current Version | Previous Version | Text Only | Print | Product List | Glossary On
Versions: 1 2 3 4 5 6 7 8 9 10 11 12 13 14 15 16 17 18 19 20 21 22 23 24 25 26 27 28 29 30 31 32 33 34 35 36 37 38 39 40 41 42 43 44 45 46 47 48 49 50
000
ASUS41 KCTP 222103
RWRCTP

REGIONAL WEATHER ROUNDUP
NATIONAL WEATHER SERVICE STATE COLLEGE PA
500 PM EDT WED MAR 22 2017

Note: "fair" indicates few or no clouds below 12,000 feet with no
significant weather and/or obstructions to visibility.

* = STATION THAT DOES NOT REPORT PRECIPITATION /E.G. RAIN...SNOW...ETC/
    THUNDER OR FOG.

PAZ002>004-007>009-013>016-020>023-029>032-222200-
WESTERN PENNSYLVANIA

CITY           SKY/WX    TMP DP  RH WIND       PRES   REMARKS
ERIE           SUNNY     28   9  44 N5        30.52S
MEADVILLE      SUNNY     28   8  43 N10G20    30.45R
FRANKLIN*      SUNNY     28   3  34 NW8G17    30.42S
NEW CASTLE     FAIR      33   8  35 N10G18    30.45S
BEAVER COUNTY  SUNNY     36   7  30 N9G17     30.43R
BUTLER*        SUNNY     36   9  32 NW8G16    30.42S
PITTSBURGH INT SUNNY     37   5  26 NW17      30.41R
PITTSBURGH     SUNNY     37   2  22 NW9G20    30.39R
INDIANA*       SUNNY     36   3  25 N12G23    30.39R
LATROBE        SUNNY     36   5  27 NW10G23   30.39R
WASHINGTON CO* SUNNY     37   7  28 N12G18    30.42S
$$

PAZ004>006-010>012-017>019-024>028-033>037-041-042-045-046-049>053-222200-
CENTRAL PENNSYLVANIA

CITY           SKY/WX    TMP DP  RH WIND       PRES   REMARKS
BRADFORD       SUNNY     25   5  42 N17       30.34R WCI  12
DUBOIS         SUNNY     30  -1  26 NW12G23   30.33S
CLEARFIELD       N/A    N/A N/A N/A MISG      30.34R
JOHNSTOWN      SUNNY     32   2  27 NW18      30.28R
ALTOONA        SUNNY     38   5  25 NW16      30.31R
STATE COLLEGE  SUNNY     36   3  25 N13G21    30.32R
WILLIAMSPORT   SUNNY     35  -3  19 N16G28    30.34R
SELINSGROVE    SUNNY     36   7  29 N16G28    30.33R
FT INDIANTOWN  SUNNY     37  -2  19 N12G30    30.30R
CAPITAL CITY   SUNNY     43  -2  15 NW20G25   30.30R
HARRISBURG     SUNNY     42   1  18 NW18G26   30.30R
YORK           SUNNY     41   6  23 N15G24    30.29R
$$

PAZ038>040-043-044-047-048-054-055-060>062-067>071-222200-
EASTERN PENNSYLVANIA

CITY           SKY/WX    TMP DP  RH WIND       PRES   REMARKS
SCRANTON       MOSUNNY   26   2  35 N13G31    30.31R WCI  15
MOUNT POCONO   SUNNY     21  -1  38 NW24G36   30.18R WCI   4
ALLENTOWN      SUNNY     34   0  23 N23G32    30.30R
QUAKERTOWN*    CLEAR     32   1  27 N17G24    30.29R
READING        SUNNY     36   4  26 NW14G26   30.30R
LANCASTER      SUNNY     40   7  25 N15G21    30.29R
COATESVILLE    CLEAR     36   1  23 NW22G31   30.28R
POTTSTOWN      SUNNY     35   1  23 N17G28    30.31R
BLUE BELL      SUNNY     34   9  35 NW13G22   30.28R
DOYLESTOWN     SUNNY     28   3  34 NW15G32   30.28R
WILLOW GROVE   NOT AVBL
NORTH PHILA    SUNNY     37   3  24 N24G36    30.31R
PHILADELPHIA   SUNNY     39   3  22 NW17G29   30.30R
$$




USA.gov is the U.S. government's official web portal to all federal, state and local government web resources and services.